Regional Weather Roundup
Issued by NWS Sioux Falls, SD

Home | Current Version | Previous Version | Text Only | Print | Product List | Glossary On
Versions: 1 2 3 4 5 6 7 8 9 10 11 12 13 14 15 16 17 18 19 20 21 22 23 24 25 26 27 28 29 30 31 32 33 34 35 36 37 38 39 40 41 42 43 44 45 46 47 48 49 50
000
ASUS43 KFSD 061610
RWRFSD

WEATHER ROUNDUP FOR SE SOUTH DAKOTA/SW MINNESOTA/NW IOWA
NATIONAL WEATHER SERVICE SIOUX FALLS SD
1000 AM CST FRI MAR 06 2015

NOTE: "FAIR" INDICATES FEW OR NO CLOUDS BELOW 12,000 FEET WITH NO
SIGNIFICANT WEATHER AND OR OBSTRUCTIONS TO VISIBILITY.


SDZ038>040-050-052>070-061700-
SOUTHEAST SOUTH DAKOTA

CITY           SKY/WX    TMP DP  RH WIND       PRES   REMARKS
CHAMBERLAIN    SUNNY     37  22  54 NW10      30.14R
HURON          SUNNY     32  19  58 NW12      30.14R WCI  23
MADISON        FAIR      32  21  64 NW14      30.08S WCI  22
MITCHELL       SUNNY     42  21  43 NW16G25   30.13R
SIOUX FALLS    MOSUNNY   38  20  48 W8        30.11R
WINNER         FAIR      43  20  39 NW14      30.16R
YANKTON        SUNNY     43  21  42 SW8       30.14S
$$

MNZ071-072-080-081-089-090-097-098-061700-
SOUTHWEST MINNESOTA

CITY           SKY/WX    TMP DP  RH WIND       PRES   REMARKS
FAIRMONT       SUNNY     30  18  59 W10       30.07S WCI  21
JACKSON        SUNNY     32  18  55 W13       30.08S WCI  22
LUVERNE        SUNNY     32  21  64 CALM      30.11R
MARSHALL       SUNNY     34  18  51 NW16      30.10R WCI  23
MONTEVIDEO     SUNNY     30  18  59 N12       30.10R WCI  21
PIPESTONE      SUNNY     28  18  64 NW9       30.07S WCI  20
REDWOOD FALLS  SUNNY     32  18  56 NW15      30.07S WCI  22
TRACY          SUNNY     37  20  52 NW14      30.08R
WINDOM         SUNNY     34  19  55 SW9       30.07S WCI  26
WORTHINGTON    SUNNY     34  19  55 W9        30.09F WCI  26
$$

IAZ001>003-012>014-020>022-031-032-NEZ013-014-SDZ071-061700-
NORTHWEST IOWA

CITY           SKY/WX    TMP DP  RH WIND       PRES   REMARKS
CHEROKEE       SUNNY     35  20  54 W7        30.14S WCI  29
DENISON        SUNNY     32  18  55 SW9       30.16R WCI  24
ESTHERVILLE    SUNNY     31  19  61 W12       30.09S WCI  22
LE MARS        SUNNY     37  19  48 SW7       30.14F
ORANGE CITY    SUNNY     37  18  44 W7        30.11F
SHELDON        SUNNY     34  19  55 SW7       30.10F WCI  28
SIOUX CITY     SUNNY     38  18  44 CALM      30.16F
SPENCER        SUNNY     35  19  52 W8        30.11F WCI  29
STORM LAKE     SUNNY     34  19  55 W13       30.13S WCI  25
$$

ABBREVIATIONS USED IN REMARKS
   TC - TEMPERATURE IN CELSIUS
  WCI - WIND CHILL INDEX
   HX - HEAT INDEX
  VSB - VISIBILITY



USA.gov is the U.S. government's official web portal to all federal, state and local government web resources and services.